Terug naar catalogus

THOR ABLESTAR DEB

ActiefPO
NORAD 3592·DEBRIS·🇺🇸 United States

Gelanceerd Jun 24, 1965 vanaf Vandenberg Space Force Base

Loading…

Volgende Passages (komende 24 uur)

TLE

VersSource: Space-Track

Epoch: Sep 14, 2026, 08:36 UTC

1 03592U 65048F   26257.35847567  .00000189  00000-0  22575-3 0  9991
2 03592  89.8698 286.5713 0062086  59.4306 314.8799 13.62750157 32104

Volg THOR ABLESTAR DEB in realtime met AllMySat

Download on the App Store